IW1CGW-23 Weather Reports


Display with metric or nautical units.
time (UTC)temp
F
wind
direction
speed
MPH
gust
MPH
rain 1hr
in
rain 24hr
in
rain mn
in
humidity
%
barometer
mb
20260902135201 81 0.0 0.0 0.00 0.00 0.00 79 1018.7
20260902133859 81 0.0 0.0 0.00 0.00 0.00 79 1018.9
20260902131240 80 0.0 0.0 0.00 0.00 0.00 79 1018.9
20260902125938 80 0.0 0.0 0.00 0.00 0.00 78 1019.0
20260902124631 81 0.0 0.0 0.00 0.00 0.00 78 1019.1
20260902122011 81 0.0 0.0 0.00 0.00 0.00 77 1019.3
20260902120708 81 0.0 0.0 0.00 0.00 0.00 76 1019.2
20260902115400 82 0.0 0.0 0.00 0.00 0.00 75 1019.4
20260902114052 83 0.0 0.0 0.00 0.00 0.00 75 1019.5
20260902112742 85 0.0 0.0 0.00 0.00 0.00 73 1019.6
20260902110124 83 0.0 0.0 0.00 0.00 0.00 74 1019.7
20260902104814 86 0.0 0.0 0.00 0.00 0.00 72 1020.0
20260902102157 83 0.0 0.0 0.00 0.00 0.00 74 1020.1
20260902100847 83 0.0 0.0 0.00 0.00 0.00 73 1020.2
20260902092919 84 0.0 0.0 0.00 0.00 0.00 71 1020.1
20260902090300 84 0.0 0.0 0.00 0.00 0.00 68 1019.9
20260902081019 88 0.0 0.0 0.00 0.00 0.00 62 1019.6
20260902075708 88 0.0 0.0 0.00 0.00 0.00 62 1019.5
20260902074400 84 0.0 0.0 0.00 0.00 0.00 64 1019.4
20260902073050 85 0.0 0.0 0.00 0.00 0.00 63 1019.3
20260902071741 83 0.0 0.0 0.00 0.00 0.00 65 1019.2
20260902070434 82 0.0 0.0 0.00 0.00 0.00 66 1019.1
20260902065125 80 0.0 0.0 0.00 0.00 0.00 68 1019.1
20260902063817 79 0.0 0.0 0.00 0.00 0.00 70 1018.9
20260902062510 77 0.0 0.0 0.00 0.00 0.00 71 1018.8
20260902061203 76 0.0 0.0 0.00 0.00 0.00 73 1019.0
20260902055858 75 0.0 0.0 0.00 0.00 0.00 74 1019.1
20260902054552 73 0.0 0.0 0.00 0.00 0.00 76 1018.9
20260902053245 72 0.0 0.0 0.00 0.00 0.00 76 1018.7
20260902051941 71 0.0 0.0 0.00 0.00 0.00 77 1018.7
20260902050636 70 0.0 0.0 0.00 0.00 0.00 77 1018.9
20260902045332 70 0.0 0.0 0.00 0.00 0.00 76 1018.7
20260902042723 71 0.0 0.0 0.00 0.00 0.00 76 1018.8
20260902041414 71 0.0 0.0 0.00 0.00 0.00 76 1018.9
20260902034810 71 0.0 0.0 0.00 0.00 0.00 76 1018.7
20260902033504 71 0.0 0.0 0.00 0.00 0.00 76 1018.6
20260902032200 71 0.0 0.0 0.00 0.00 0.00 76 1018.6
20260902030857 71 0.0 0.0 0.00 0.00 0.00 76 1018.7
20260902025551 71 0.0 0.0 0.00 0.00 0.00 76 1018.8
20260902024241 71 0.0 0.0 0.00 0.00 0.00 75 1018.8
20260902022941 71 0.0 0.0 0.00 0.00 0.00 75 1018.8
20260902021632 71 0.0 0.0 0.00 0.00 0.00 75 1018.8
20260902020327 71 0.0 0.0 0.00 0.00 0.00 75 1018.6
20260902015023 72 0.0 0.0 0.00 0.00 0.00 75 1018.7
20260902013719 71 0.0 0.0 0.00 0.00 0.00 76 1018.7
20260902012419 72 0.0 0.0 0.00 0.00 0.00 75 1018.6
20260902011114 72 0.0 0.0 0.00 0.00 0.00 75 1018.7
20260902005810 72 0.0 0.0 0.00 0.00 0.00 75 1018.8
20260902004500 72 0.0 0.0 0.00 0.00 0.00 75 1018.9
20260902003159 73 0.0 0.0 0.00 0.00 0.00 75 1018.8
20260902000551 73 0.0 0.0 0.00 0.00 0.00 75 1018.8
20260901235246 73 0.0 0.0 0.00 0.00 0.00 75 1018.7
20260901233935 73 0.0 0.0 0.00 0.00 0.00 75 1018.8
20260901232635 74 0.0 0.0 0.00 0.00 0.00 75 1018.7
20260901231325 74 0.0 0.0 0.00 0.00 0.00 75 1018.9
20260901230024 74 0.0 0.0 0.00 0.00 0.00 75 1018.9
20260901224720 74 0.0 0.0 0.00 0.00 0.00 75 1018.9
20260901223409 75 0.0 0.0 0.00 0.00 0.00 75 1018.8
20260901222104 75 0.0 0.0 0.00 0.00 0.00 76 1018.7
20260901220804 75 0.0 0.0 0.00 0.00 0.00 76 1018.6
20260901214148 75 0.0 0.0 0.00 0.00 0.00 76 1018.7
20260901212849 75 0.0 0.0 0.00 0.00 0.00 77 1018.7
20260901211543 76 0.0 0.0 0.00 0.00 0.00 77 1018.7
20260901210232 76 0.0 0.0 0.00 0.00 0.00 77 1018.6
20260901204931 76 0.0 0.0 0.00 0.00 0.00 76 1018.5
20260901203621 77 0.0 0.0 0.00 0.00 0.00 76 1018.4
20260901202315 77 0.0 0.0 0.00 0.00 0.00 76 1018.4
20260901201009 77 0.0 0.0 0.00 0.00 0.00 75 1018.5
20260901195710 77 0.0 0.0 0.00 0.00 0.00 75 1018.4
20260901194359 78 0.0 0.0 0.00 0.00 0.00 75 1018.4
20260901193052 78 0.0 0.0 0.00 0.00 0.00 74 1018.3
20260901191746 78 0.0 0.0 0.00 0.00 0.00 74 1018.2
20260901190446 79 0.0 0.0 0.00 0.00 0.00 73 1018.1
20260901185134 79 0.0 0.0 0.00 0.00 0.00 73 1017.9
20260901183827 80 0.0 0.0 0.00 0.00 0.00 72 1017.9
20260901182526 80 0.0 0.0 0.00 0.00 0.00 72 1017.8
20260901181215 80 0.0 0.0 0.00 0.00 0.00 72 1017.7
20260901175908 80 0.0 0.0 0.00 0.00 0.00 73 1017.6
20260901173255 81 0.0 0.0 0.00 0.00 0.00 73 1017.5
20260901171954 81 0.0 0.0 0.00 0.00 0.00 74 1017.5
20260901170647 81 0.0 0.0 0.00 0.00 0.00 74 1017.4
20260901164027 81 0.0 0.0 0.00 0.00 0.00 74 1017.5
20260901162724 81 0.0 0.0 0.00 0.00 0.00 74 1017.6
20260901161417 82 0.0 0.0 0.00 0.00 0.00 75 1017.6
20260901160105 81 0.0 0.0 0.00 0.00 0.00 75 1017.6
20260901154758 82 0.0 0.0 0.00 0.00 0.00 75 1017.6
20260901153456 82 0.0 0.0 0.00 0.00 0.00 75 1017.6
20260901152148 83 0.0 0.0 0.00 0.00 0.00 74 1017.6
20260901150836 82 0.0 0.0 0.00 0.00 0.00 75 1017.7
20260901145534 82 0.0 0.0 0.00 0.00 0.00 75 1017.8
20260901142914 83 0.0 0.0 0.00 0.00 0.00 74 1017.9